Flag Weather past 2 weeks in Grand Rapids, Michigan, U.S.A.

Now
28 °F

Overcast.


Feels Like: 21 °F
Forecast: 19 / 32 °F
Wind: 7 mph from West

Location: Kent County International Airport

Current Time: Nov 27, 2014 at 5:53:52 AM

Latest Report: Nov 27, 2014 at 4:53 AM


Visibility: 10 mi

Pressure: 30.18 "Hg

Humidity: 78%

Dew point: 22 °F

Location of Grand RapidsLocation

Historic Weather in Grand Rapids — Graph

°F

Grand Rapids temperature yesterday

Maximum temperature yesterday: 30 °F (at 1:53 PM)
Minimum temperature yesterday: 28 °F (at 12:53 AM)
Average temperature yesterday: 29 °F

Past Weeks' High & Low Weather Summary

 TemperatureHumidityPressure
High51 °F (Nov 23, 2:53 PM)100% (Nov 24, 12:53 AM)30.49 "Hg (Nov 24, 12:53 AM)
Low12 °F (Nov 21, 7:53 AM)56% (Nov 22, 1:53 AM)29.03 "Hg (Nov 24, 2:53 AM)
Average29 °F79%30.00 "Hg
* Reported Nov 12 4:53 AM — Nov 27 4:53 AM, Grand Rapids, Weather by CustomWeather, © 2014

Note: Actual official high and low records may vary slightly from our data, if they occured in-between our weather recording intervals... More about our weather records

Advertising

Grand Rapids weather history for previous 24 hours

 ConditionsComfort  
Time TempWeatherWind HumidityBarometerVisibility
4:53 AM
Nov 27
28 °FOvercast.7 mph78%30.18 "Hg10 mi
3:53 AM29 °FOvercast.7 mph72%30.18 "Hg10 mi
2:53 AM29 °FOvercast.6 mph75%30.17 "Hg10 mi
1:53 AM28 °FOvercast.No wind75%30.16 "Hg10 mi
12:53 AM28 °FOvercast.5 mph75%30.16 "Hg10 mi
11:53 PM
Nov 26
29 °FOvercast.3 mph72%30.17 "Hg10 mi
10:53 PM29 °FLight snow. Overcast.5 mph72%30.16 "Hg9 mi
9:53 PM29 °FOvercast.5 mph72%30.16 "Hg10 mi
8:53 PM29 °FOvercast.5 mph72%30.14 "Hg10 mi
7:53 PM29 °FOvercast.5 mph72%30.14 "Hg10 mi
6:53 PM29 °FOvercast.6 mph72%30.15 "Hg10 mi
5:53 PM29 °FOvercast.7 mph69%30.15 "Hg10 mi
4:53 PM29 °FMostly cloudy.6 mph72%30.15 "Hg9 mi
3:53 PM30 °FOvercast.3 mph66%30.16 "Hg10 mi
2:53 PM29 °FOvercast.3 mph72%30.16 "Hg10 mi
1:53 PM30 °FOvercast.No wind66%30.15 "Hg10 mi
12:53 PM29 °FOvercast.5 mph72%30.15 "Hg10 mi
11:53 AM29 °FLight snow. Overcast.7 mph69%30.19 "Hg10 mi
10:53 AM29 °FLight snow. More clouds than sun.10 mph72%30.19 "Hg9 mi
9:53 AM29 °FOvercast.8 mph72%30.19 "Hg7 mi
8:53 AM28 °FOvercast.3 mph78%30.19 "Hg7 mi
7:53 AM28 °FOvercast.No wind81%30.19 "Hg7 mi
6:53 AM28 °FOvercast.6 mph78%30.19 "Hg7 mi
5:53 AM28 °FOvercast.3 mph81%30.19 "Hg7 mi
Weather by CustomWeather, © 2014

See weather overviewHow to use our weather pages